TAURUS 4

operational
NORAD ID: 66297 Int'l Des: 2025-248 Owner: TURKS Country: TR
NOTLE

About TAURUS 4

Description loading...

Live Position

Loading 3D Globe...

Upcoming Passes

Altitude History

Altitude vs Time

uPlot chart will show altitude changes over time

Two-Line Element Set

1 66297U 25248E 25355.43963625 .00008901 00000-0 42002-3 0 9998
2 66297 45.4071 352.6472 0007569 121.6434 238.5192 15.19852229 7483
Epoch: Dec 21, 2025 • Age: 10 hours

Current Status

Altitude 504.1 km
Velocity 7.62 km/s
Sub-Earth Point 40.88°N, 73.99°E
Launch Date Nov 2, 2025
Age 0.1 years
Type other

Technical Details

Classification Payload
Mass 0.45 kg
Dry Mass 0.45 kg
Total Mass 0.45 kg
Length 0.03 m
Diameter 0.10 m
Span 0.10 m
Shape Box
Manufacturer GUMUSH
Bus Type Cubesat 0.25U
Phase Status In Orbit
Owner/State TURKS/TR

Large Constellations

Loading constellations...